This demonstration page uses our WeatherBlox Daily Observations layout. Learn more.

Left ArrowRight Arrow

Hourly Observations for December 9, 2022

Temp ( °F °C ) Dew Point ( °F °C ) Humidity (%) Winds ( mph kmh ) Pressure ( in mb ) Visibility ( mi km ) Precip ( " mm )
12:25 am 00:25 Cloudy with Drizzle 35 1.7 34 1.1 96 96 W 12 19 30.07 1018 2 3 0.01 0.13
12:52 am 00:52 Cloudy with Drizzle 35 1.7 33 0.6 92 92 W 9 15 30.04 1017 3 5 0.01 0.13
1:52 am 01:52 Cloudy 34 1.1 32 0 92 92 W 8 13 30.04 1017 7 11 0.01 0.13
2:52 am 02:52 Cloudy 33 0.6 31 -0.6 92 92 W 13 20 30.05 1018 7 11 0.00 0.00
3:52 am 03:52 Cloudy 33 0.6 32 0 96 96 W 12 19 30.05 1018 7 11 0.00 0.00
4:21 am 04:21 Cloudy with Mist and Fog 34 1.1 32 0 92 92 WNW 8 13 30.09 1019 5 8 0.00 0.00
4:38 am 04:38 Cloudy with Mist and Fog 34 1.1 33 0.6 96 96 NW 12 19 30.09 1019 2 2 0.00 0.00
4:52 am 04:52 Cloudy with Mist and Fog 34 1.1 33 0.6 96 96 NW 8 13 30.07 1018 1 2 0.00 0.00
5:18 am 05:18 Cloudy with Mist and Fog 34 1.1 33 0.6 96 96 NW 10 17 30.10 1019 2 3 0.00 0.00
5:32 am 05:32 Cloudy with Mist and Fog 34 1.1 33 0.6 96 96 NW 10 17 30.10 1019 3 5 0.00 0.00
5:52 am 05:52 Cloudy with Mist and Fog 34 1.1 33 0.6 96 96 NW 10 17 30.08 1019 5 8 0.00 0.00
6:10 am 06:10 Cloudy with Mist and Fog 34 1.1 33 0.6 96 96 NW 12 19 30.11 1020 5 8 0.00 0.00
6:52 am 06:52 Cloudy with Mist and Fog 34 1.1 33 0.6 96 96 NW 10 17 30.11 1020 5 8 0.00 0.00
7:52 am 07:52 Cloudy with Mist and Fog 34 1.1 32 0 92 92 NW 12 19 30.13 1020 5 8 0.00 0.00
8:52 am 08:52 Cloudy with Mist and Fog 34 1.1 33 0.6 96 96 NW 9 15 30.14 1021 3 5 0.00 0.00
9:52 am 09:52 Cloudy with Mist and Fog 35 1.7 33 0.6 92 92 NNW 13 20 30.16 1022 3 5 0.00 0.00
10:52 am 10:52 Cloudy with Mist and Fog 36 2.2 33 0.6 89 89 NNW 14 22 30.17 1022 6 10 0.00 0.00
11:02 am 11:02 Cloudy 36 2.2 33 0.6 89 89 N 13 20 30.19 1022 7 11 0.00 0.00
11:52 am 11:52 Cloudy 36 2.2 33 0.6 89 89 NNW 10 17 30.16 1022 7 11 0.00 0.00
12:52 pm 12:52 Cloudy 37 2.8 33 0.6 85 85 NNW 6 9 30.15 1021 10 16 0.00 0.00
1:41 pm 13:41 Cloudy 37 2.8 32 0 82 82 NNW 6 9 30.17 1022 10 16 0.00 0.00
1:52 pm 13:52 Cloudy 37 2.8 33 0.6 85 85 NNW 7 11 30.15 1021 10 16 0.00 0.00
2:12 pm 14:12 Cloudy 37 2.8 32 0 82 82 WNW 6 9 30.17 1022 10 16 0.00 0.00
2:52 pm 14:52 Cloudy 36 2.2 32 0 85 85 N 3 6 30.15 1021 10 16 0.00 0.00
3:15 pm 15:15 Cloudy 36 2.2 33 0.6 89 89 NNW 5 7 30.18 1022 10 16 0.00 0.00
3:52 pm 15:52 Cloudy 36 2.2 33 0.6 89 89 N 5 7 30.16 1021 10 16 0.00 0.00
4:52 pm 16:52 Cloudy 36 2.2 33 0.6 89 89 NNE 3 6 30.16 1021 10 16 0.00 0.00
5:52 pm 17:52 Cloudy 35 1.7 32 0 88 88 Calm 30.16 1021 10 16 0.00 0.00
6:52 pm 18:52 Cloudy 36 2.2 32 0 85 85 Calm 30.16 1021 10 16 0.00 0.00
7:52 pm 19:52 Cloudy 36 2.2 32 0 85 85 S 6 9 30.16 1022 7 11 0.00 0.00
8:52 pm 20:52 Cloudy 35 1.7 31 -0.6 85 85 S 5 7 30.16 1021 8 13 0.00 0.00
9:52 pm 21:52 Cloudy 35 1.7 31 -0.6 85 85 S 3 6 30.15 1021 7 11 0.00 0.00
10:36 pm 22:36 Cloudy 34 1.1 31 -0.6 88 88 SSE 7 11 30.18 1022 7 11 0.00 0.00
10:52 pm 22:52 Cloudy 34 1.1 31 -0.6 88 88 SE 7 11 30.15 1021 7 11 0.00 0.00
11:52 pm 23:52 Cloudy 33 0.6 31 -0.6 92 92 S 5 7 30.18 1022 9 14 0.00 0.00

Powered by AerisWeather